Weather History for Kodiak, AK

Change the Weather History Date:

Wednesday, June 12, 2013

  Actual Average Record
Temperature  
Mean Temperature 52 °F 49 °F  
Max Temperature 60 °F 54 °F 66 °F (1959)
Min Temperature 44 °F 44 °F 35 °F (1985)
Degree Days  
Heating Degree Days 13 16  
Month to date heating degree days 159 204  
Since 1 June heating degree days 159 204  
Since 1 July heating degree days 8704 8538  
Cooling Degree Days 0    
Month to date cooling degree days 0  
Year to date cooling degree days 0  
Since 1 June cooling degree days 0  
Growing Degree Days 2 (Base 50)    
Moisture  
Dew Point 43 °F    
Average Humidity 0    
Maximum Humidity 0    
Minimum Humidity 0    
Precipitation  
Precipitation 0.00 in 0.20 in 1.64 in (1986)
Month to date precipitation 2.21 2.52  
Year to date precipitation 27.65 33.91  
Snow  
Snow 0.00 in 0.00 in 0.00 in (2014)
Month to date snowfall 0.0 0.0  
Since 1 June snowfall 0.0 0.0  
Snow Depth 0.00 in    
Sea Level Pressure  
Sea Level Pressure 30.01 in    
Wind  
Wind Speed 7 mph (NE)    
Max Wind Speed 21 mph    
Max Gust Speed 25 mph    
Visibility 10 miles    
Events      
T = Trace of Precipitation, MM = Missing Value Source: NWS Daily Summary

Daily Weather History Graph

Daily Weather History Graph

Search for Another Location

Airport:

Trip Planner

Search our weather history database for the weather conditions in past years. The results will help you decide how hot, cold, wet, or windy it might be!

Date:

Astronomy

Jun. 12, 2013 Rise Set
Actual Time 5:09 AM AKDT 11:10 PM AKDT
Civil Twilight 3:57 AM AKDT 12:23 AM AKDT
Nautical Twilight Sun does not rise Sun does not rise
Astronomical Twilight Sun does not rise Sun does not rise
Moon 9:44 AM AKDT (6/12) 12:36 AM AKDT (6/12)
Length of Visible Light 20h 25m
Length of Day
18h 01m
Waxing Crescent, 15% of the Moon is Illuminated
Jun 12
Waxing Crescent
Jun 16
First Quarter
Jun 23
Full
Jun 29
Last Quarter
Jul 7
New

Hourly Weather History & Observations

Time (AKDT) Temp. Windchill Dew Point Humidity Pressure Visibility Wind Dir Wind Speed Gust Speed Precip Events Conditions
12:53 AM 51.1 °F - 42.1 °F 71% 30.05 in 10.0 mi West 4.6 mph - N/A   Scattered Clouds
1:53 AM 48.9 °F - 42.1 °F 77% 30.05 in 10.0 mi West 3.5 mph - N/A   Scattered Clouds
2:53 AM 48.0 °F - 41.0 °F 77% 30.04 in 10.0 mi West 4.6 mph - N/A   Scattered Clouds
3:53 AM 45.0 °F 43.5 °F 39.9 °F 82% 30.04 in 10.0 mi West 3.5 mph - N/A   Clear
4:53 AM 45.0 °F - 39.9 °F 82% 30.03 in 10.0 mi Calm Calm - N/A   Clear
5:53 AM 45.0 °F 42.6 °F 39.9 °F 82% 30.02 in 10.0 mi West 4.6 mph - N/A   Clear
6:53 AM 48.0 °F - 41.0 °F 77% 30.02 in 10.0 mi WSW 3.5 mph - N/A   Partly Cloudy
7:53 AM 51.1 °F - 43.0 °F 74% 30.01 in 10.0 mi Calm Calm - N/A   Partly Cloudy
8:53 AM 52.0 °F - 44.1 °F 74% 30.01 in 10.0 mi East 3.5 mph - N/A   Clear
9:53 AM 54.0 °F - 46.0 °F 75% 30.01 in 10.0 mi ENE 4.6 mph - N/A   Clear
10:53 AM 55.0 °F - 45.0 °F 69% 30.01 in 10.0 mi NE 5.8 mph - N/A   Partly Cloudy
11:53 AM 57.9 °F - 45.0 °F 62% 30.00 in 10.0 mi East 6.9 mph - N/A   Partly Cloudy
12:53 PM 55.0 °F - 45.0 °F 69% 30.01 in 10.0 mi ESE 9.2 mph - N/A   Partly Cloudy
1:53 PM 57.9 °F - 44.1 °F 60% 29.99 in 10.0 mi ESE 5.8 mph - N/A   Partly Cloudy
2:53 PM 57.0 °F - 45.0 °F 64% 29.99 in 10.0 mi ESE 5.8 mph - N/A   Partly Cloudy
3:53 PM 57.9 °F - 44.1 °F 60% 29.98 in 10.0 mi ESE 8.1 mph - N/A   Scattered Clouds
4:53 PM 57.9 °F - 44.1 °F 60% 29.98 in 10.0 mi East 5.8 mph - N/A   Scattered Clouds
5:53 PM 59.0 °F - 46.0 °F 62% 29.97 in 10.0 mi NNE 8.1 mph - N/A   Scattered Clouds
6:53 PM 57.9 °F - 46.0 °F 65% 29.96 in 10.0 mi NNE 16.1 mph - N/A   Scattered Clouds
7:53 PM 55.0 °F - 43.0 °F 64% 29.97 in 10.0 mi NNE 19.6 mph - N/A   Scattered Clouds
8:53 PM 54.0 °F - 44.1 °F 69% 29.97 in 10.0 mi NE 13.8 mph - N/A   Scattered Clouds
9:53 PM 50.0 °F - 44.1 °F 80% 29.99 in 10.0 mi NNE 13.8 mph 21.9 mph N/A   Scattered Clouds
10:53 PM 46.9 °F - 44.1 °F 90% 30.01 in 10.0 mi NNE 12.7 mph - N/A   Scattered Clouds
11:53 PM 46.9 °F - 44.1 °F 90% 30.02 in 10.0 mi ENE 8.1 mph - N/A   Mostly Cloudy